www.pogodaiklimat.ru

Погода и климат >> Архив погоды >> Россия >> Краснодарский край >> Туапсе


АРХИВ ПОГОДЫ в Туапсе

Время (UTC), дата Ветер
(напр.,м/с)
 
Видим.   Явления Облачность Т
(С)
Тd
(С)
f
(%)
Тe
(С)
Тes
(С)
Комфортность P
(гПа)
Po
(гПа)
Тmin
(С)
Tmax
(С)
R
(мм)
R24
(мм)
S
(см)
15 19.05 ЮВ 2 20 км 10/6 1000 м
[Cb cap Ac trans Ci sp]
+19.6 +14.4 72 +22 +22 комфорт 1012.1 1004.9 +20.5 1
18 19.05 Ю 1 10 км 10/6 1000 м
[Cb cap Ci sp]
+18.2 +14.9 81 +20 +20 тепло 1012.2 1005.0
21 19.05 ЮВ 1 10 км 10/10 600 м
[Cb cap]
+18.5 +14.8 79 +20 +20 тепло 1013.0 1005.8
00 20.05 ЮЗ 1 10 км 10/10 600 м
[Cb cap]
+17.9 +15.5 86 +19 +19 тепло 1013.9 1006.7
03 20.05 штиль 0 10 км в посл. час ливневой дождь 10/8 1000 м
[Cb cap Ac trans Ci sp]
+17.5 +15.5 88 +17 +18 тепло 1014.1 1006.9 +17.5 0.0
06 20.05 СВ 1 10 км гроза, ливневой дождь 10/8 600 м
[Cb cap Ci]
+18.6 +15.3 81 +21 +22 комфорт 1015.5 1008.3
09 20.05 ЮЗ 1 10 км {гроза, ливн. осадки} 10/8 1000 м
[Cb cap Ci]
+19.3 +16.9 86 +22 +26 комфорт 1016.4 1009.1
12 20.05 З 1 20 км {гроза, ливн. осадки} 6/4 1000 м
[Cb cap Ci fib]
+24.1 +16.3 62 +28 +36 душно 1015.2 1008.1
15 20.05 СЗ 2 20 км 8/3 1000 м
[Sc Ci fib]
+22.9 +15.9 65 +27 +29 душно 1014.3 1007.2 +24.6 1
18 20.05 ЮВ 2 10 км 6/3 1000 м
[Sc Ci fib]
+18.3 +15.9 86 +19 +19 тепло 1016.0 1008.8
21 20.05 С 1 10 км 4/0
[Ci fib]
+16.9 +14.7 87 +18 +18 тепло 1016.1 1008.8
00 21.05 С 1 10 км 3/0
[Ci fib]
+15.4 +13.4 88 +16 +16 тепло 1015.9 1008.6
03 21.05 СВ 1 20 км 3/0
[Ci fib]
+15.5 +13.7 89 +16 +17 по сезону 1016.2 1008.9 +15.0
06 21.05 ЮЗ 2 20 км 3/0
[Ci fib]
+22.1 +15.6 67 +26 +35 душно 1017.0 1009.9
09 21.05 ЮЗ 2 20 км 3/1 1000 м
[Cu med, cong Ci fib]
+24.5 +15.8 58 +28 +44 душно 1016.8 1009.7
12 21.05 З 2 20 км 9/1 1000 м
[Cu med, cong Ci fib]
+24.1 +15.9 60 +27 +37 жарко 1016.7 1009.6
15 21.05 З 1 20 км 10/1 1000 м
[Cu med, cong Ci fib]
+22.8 +14.9 61 +27 +28 душно 1015.3 1008.2 +25.9
18 21.05 З 1 10 км 10/3 1000 м
[Sc Ac trans Ci fib]
+20.0 +14.9 72 +23 +23 комфорт 1013.9 1006.7
21 21.05 СВ 1 10 км 4/1 1000 м
[Sc Ac trans Ci fib]
+17.7 +15.4 86 +19 +19 тепло 1014.4 1007.2
00 22.05 С 1 10 км 10/1 1000 м
[Sc Ac trans Ci fib]
+17.1 +13.5 79 +18 +18 тепло 1013.4 1006.2
03 22.05 З 2 20 км 10/5 1000 м
[Cb cap Ac trans Ci fib]
+19.1 +13.5 70 +21 +21 комфорт 1013.5 1006.3 +16.9
06 22.05 СВ 2 10 км слаб. ливневой дождь 10/8 600 м
[Cb cap Ac As]
+17.6 +15.0 85 +18 +19 по сезону 1014.9 1007.7
09 22.05 ЮВ 3 20 км {ливн. осадки} 9/5 1000 м
[Cu med, cong Ac cast Ci sp]
+22.6 +15.0 62 +26 +31 жарко 1014.1 1007.0
12 22.05 ЮЗ 3 20 км {ливн. осадки} 9/5 1000 м
[Cb cap Ac trans Ci fib]
+23.3 +17.5 70 +29 +32 душно 1015.4 1008.3
15 22.05 ЮВ 3 20 км в посл. час ливневой дождь 6/4 1000 м
[Cb cap Ci sp]
+20.3 +16.5 79 +24 +25 комфорт 1015.2 1008.0 +25.4 2
18 22.05 ЮВ 2 10 км {ливн. осадки} 6/6 1000 м
[Cb cap]
+19.4 +17.2 87 +22 +22 комфорт 1015.4 1008.2
21 22.05 Ю 3
{11}
10 км 10/10 600 м
[Cb cap]
+19.3 +15.4 78 +21 +21 комфорт 1015.0 1007.8
00 23.05 ЮВ 2 10 км 8/4 1000 м
[Cu Sc Ci fib]
+18.3 +13.0 71 +19 +19 тепло 1014.1 1006.9
03 23.05 В 2 20 км 8/3 1000 м
[Cu Sc Ci fib]
+18.5 +12.1 66 +20 +20 тепло 1013.7 1006.5 +17.7 0.0
06 23.05 Ю 2 20 км 8/4 1000 м
[Cu Sc Ci fib]
+21.8 +14.2 62 +25 +30 комфорт 1013.7 1006.6
09 23.05 ЮВ 4 20 км 9/8 1000 м
[Cu Sc Ci]
+20.2 +15.3 73 +23 +25 комфорт 1014.2 1007.0
12 23.05 ЮВ 4 20 км 9/8 1000 м
[Cb cap Ci]
+20.3 +16.1 77 +23 +25 комфорт 1014.2 1007.0
15 23.05 Ю 3 20 км 8/6 1000 м
[Cb cap Ci]
+19.9 +16.3 80 +23 +23 комфорт 1013.7 1006.5 +22.8
18 23.05 ЮВ 4 10 км 8/6 1000 м
[Cb cap Ci]
+19.4 +15.3 77 +21 +21 комфорт 1013.9 1006.7
21 23.05 ЮВ 3 10 км 8/4 1000 м
[Cb cap Ci fib]
+19.2 +12.2 64 +21 +21 комфорт 1013.0 1005.8
00 24.05 ЮВ 2 10 км 4/3 1000 м
[Sc Ci fib]
+19.1 +13.3 69 +21 +21 комфорт 1012.3 1005.1
03 24.05 СВ 1 20 км 1/0
[Ci fib]
+17.4 +12.8 74 +18 +19 тепло 1011.5 1004.3 +17.3
06 24.05 Ю 1 20 км 6/0
[Ci fib]
+22.9 +12.0 50 +25 +36 комфорт 1011.3 1004.2
09 24.05 Ю 1 20 км 10/4 1000 м
[Cu med, cong Ac trans Ci fib]
+22.2 +12.6 54 +25 +31 комфорт 1011.3 1004.2
12 24.05 ЮЗ 1 20 км 9/1 1000 м
[Cu med, cong Ac trans Ci fib]
+25.0 +14.6 52 +28 +35 жарко 1009.4 1002.4
15 24.05 З 1 20 км 10/6 1000 м
[Cb cap Ac trans Ci fib]
+21.7 +13.4 59 +24 +25 комфорт 1009.2 1002.1 +25.5
18 24.05 СВ 1 10 км 10/3 1000 м
[Sc Ac trans Ci fib]
+19.9 +11.0 56 +22 +22 комфорт 1008.2 1001.1
21 24.05 С 1 10 км 10/3 1000 м
[Sc Ci fib]
+18.9 +10.6 59 +21 +21 комфорт 1008.0 1000.8
00 25.05 СВ 2 10 км 3/0
[Ci fib]
+20.5 +11.4 56 +23 +23 комфорт 1006.9 999.8
03 25.05 СВ 2 20 км 8/3 1000 м
[Cb cap Ac trans Ci fib]
+17.9 +12.9 73 +18 +19 тепло 1006.1 998.9 +17.5
06 25.05 СВ 3 10 км слаб. ливневой дождь {гроза} 10/8 600 м
[Cb cap Ac trans Ci sp]
+20.3 +14.7 70 +23 +24 комфорт 1004.8 997.7
09 25.05 В 1 20 км в посл. час ливневой дождь {гроза} 10/8 1000 м
[Cb cap Ac trans Ci sp]
+21.4 +17.7 79 +26 +28 душно 1005.8 998.7
12 25.05 ЮЗ 3
{11}
10 км слаб. ливневой дождь {гроза} 10/8 600 м
[Cb cap Ac trans Ci sp]
+18.0 +15.5 85 +18 +19 прохладно 1010.1 1002.9
15 25.05 ЮЗ 4 20 км {ливн. осадки} 10/5 1000 м
[Cb cap Ac trans Ci sp]
+18.9 +15.3 80 +20 +20 тепло 1011.8 1004.6 +22.8 3
18 25.05 Ю 3 10 км {ливн. осадки} 10/8 1000 м
[Cb cap Ci sp]
+18.2 +14.3 78 +19 +19 тепло 1013.5 1006.3
21 25.05 ЮЗ 5-11
{11}
10 км 10/8 600 м
[Cb cap Ci sp]
+18.1 +14.2 78 +18 +18 тепло 1014.0 1006.8
00 26.05 ЮЗ 4-11
{11}
10 км {ливн. осадки} 8/6 600 м
[Cb cap Ci sp]
+17.8 +14.2 79 +18 +18 тепло 1013.6 1006.4
03 26.05 ЮЗ 4
{11}
20 км 9/8 600 м
[Cb cap Ac trans Ci sp]
+17.9 +14.6 81 +18 +18 тепло 1014.2 1007.0 +17.4 0.0
06 26.05 ЮЗ 3 20 км 8/5 1000 м
[Cb cap Ac trans Ci fib]
+20.0 +15.0 73 +23 +26 комфорт 1015.4 1008.2
09 26.05 Ю 3 20 км 9/8 1000 м
[Cb cap Ac trans Ci]
+19.2 +14.7 75 +21 +23 комфорт 1016.3 1009.1
12 26.05 Ю 3 10 км гроза, ливневой дождь 10/8 600 м
[Cb cap Ac trans Ci]
+17.3 +15.2 87 +17 +18 прохладно 1016.3 1009.0

 

Местоположение метеостанции Туапсе (Краснодарский край, Россия): широта 44.10 долгота 39.07 высота над уровнем моря 62 м.

В архиве по умолчанию представлена погода в Туапсе за последнюю неделю. Архивные данные за месяц целиком и за предыдущие месяцы, начиная с января 2011 года, Вы можете получить, выбрав интересующий диапазон дат из раскрывающегося списка и нажав кнопку "Ввод!".


*Определитесь, кто Вы:
робот инопланетянин человек

Внимание! Время в таблицах - всемирное. Для получения местного времени необходимо прибавить поправку, которая равна 3 ч.

Смотрите также архив погоды в соседних городах и на ближайших метеорологических станциях:

Погода в Магри (Краснодарский край, Россия) (11 км)
Погода в Горном (Краснодарский край, Россия) (26 км)
Погода в Лазаревском (Краснодарский край, Россия) (30 км)
Погода в Джубге (Краснодарский край, Россия) (38 км)
Погода в Кичмае (Краснодарский край, Россия) (46 км)
Погода в Солох Ауле (Краснодарский край, Россия) (56 км)
Погода в Горячем Ключе (Краснодарский край, Россия) (59 км)
Погода в Сочи (Краснодарский край, Россия) (81 км)
Погода в Гузерипле (Адыгея, Россия) (85 км)
Погода в Шунтуке (Адыгея, Россия) (93 км)

Пояснения к столбцам:

Ветер - указаны скорость ветра в м/с - средняя за 10 мин, порывы в срок и между сроками (в фигурных скобках) и направление, откуда дует ветер: С - северный, СВ - северо-восточный, В - восточный, ЮВ - юго-восточный, Ю - южный, ЮЗ - юго-западный, З - западный, СЗ - северо-западный.
Видимость - горизонтальная дальность видимости в метрах или километрах. При видимости от 1 до 10 км при отсутствии осадков обычно наблюдается дымка, при ухудшении видимости до 1 км и менее - туман. В сухую погоду видимость может ухудшаться дымом, пылью или мглою.
Явления - указаны атмосферные явления, наблюдавшиеся в срок или в последний час перед сроком; фигурными скобками обозначены явления, наблюдавшиеся между сроками (за 1-3 часа до срока); квадратными скобками обозначены град или гололедные отложения с указанием их диаметра в мм.
Облачность - указаны через наклонную черту общая и нижняя облачность в баллах и высота нижней границы облаков в метрах; квадратными скобками обозначены формы облаков: Ci - перистые, Cs - перисто-слоистые, Cc - перисто-кучевые, Ac - высококучевые, As - высокослоистые, Sc - слоисто-кучевые, Ns - слоисто-дождевые, Cu - кучевые, Cb - кучево-дождевые. Подробнее классификацию облаков см. в Атласе облаков (PDF).
T - Температура воздуха - температура, измеренная на высоте 2 м над землей.
Td - Температура точки росы - температура, при понижении до которой содержащийся в воздухе водяной пар достигнет насыщения.
f - Относительная влажность воздуха - влажноcть воздуха, измеренная на высоте 2 м над землей.
Te - Эффективная температура - температура, которую ощущает одетый по сезону человек в тени. Характеристика душности погоды. При расчете учитывается влияние влажности воздуха и скорости ветра на теплоощущения человека.
Tes - Эффективная температура на солнце - температура, которую ощущает человек, с поправкой на солнечный нагрев. Характеристика знойности погоды. Зависит от высоты солнца над горизонтом, облачности и скорости ветра. Ночью, в пасмурную погоду, а также при ветре 12 м/с и более поправка равна нулю.
P - Атмосферное давление - приведенное к уровню моря атмосферное давление.
Po - Атмосферное давление - измеренное на уровне метеостанции атмосферное давление.
Tmin - Минимальная температура - минимум температуры воздуха на высоте 2 м над землей.
Tmax - Максимальная температура - максимум температуры воздуха на высоте 2 м над землей.
R - Количество осадков - Количество выпавших осадков за период времени, мм. При наведении курсора мыши на число - период времени, за который выпало указанное количество осадков.
R24 - Количество осадков - Количество выпавших осадков за 24 часа, мм.
S - Снежный покров - Высота снежного покрова, см. При наведении курсора мыши на число - состояние снежного покрова и степень покрытия местности в баллах.